A4066 KDYS-KDYS

Flight info

Callsign A4066
Flight time 1h 29m
Altitude 16500
Route SDR LANCER MOA /D0100
Aircraft B1/H-V/N

Departure

Time 2026-04-13 19:07
Airport Dyess Air Force Base (KDYS)

Arrival

Time 2026-04-13 20:36
Airport Dyess Air Force Base (KDYS)
Time Latitude Longitude Altitude Speed Heading
2026-04-13 18:28 32.41122 -99.84634 1858 ft 0 kts 258°
2026-04-13 18:56 32.41119 -99.84651 1869 ft 4 kts 258°
2026-04-13 18:56 32.41120 -99.84688 1873 ft 5 kts 294°
2026-04-13 18:56 32.41145 -99.84707 1873 ft 6 kts 342°
2026-04-13 18:57 32.41210 -99.84725 1870 ft 10 kts 348°
2026-04-13 18:57 32.41281 -99.84741 1873 ft 12 kts 349°
2026-04-13 18:57 32.41377 -99.84763 1873 ft 16 kts 349°
2026-04-13 18:57 32.41500 -99.84791 1873 ft 20 kts 349°
2026-04-13 18:58 32.41609 -99.84816 1872 ft 15 kts 348°
2026-04-13 18:58 32.41680 -99.84851 1872 ft 2 kts 291°
2026-04-13 18:58 32.41680 -99.84874 1873 ft 5 kts 259°
2026-04-13 18:58 32.41672 -99.84928 1875 ft 9 kts 261°
2026-04-13 18:59 32.41675 -99.84967 1872 ft 1 kts 311°
2026-04-13 18:59 32.41695 -99.84980 1874 ft 6 kts 339°
2026-04-13 18:59 32.41732 -99.84991 1873 ft 10 kts 349°
2026-04-13 18:59 32.41824 -99.85011 1872 ft 16 kts 349°
2026-04-13 19:00 32.41959 -99.85042 1872 ft 23 kts 348°
2026-04-13 19:00 32.42139 -99.85084 1872 ft 25 kts 347°
2026-04-13 19:00 32.42290 -99.85120 1872 ft 23 kts 349°
2026-04-13 19:00 32.42454 -99.85158 1872 ft 24 kts 349°
2026-04-13 19:01 32.42628 -99.85198 1874 ft 27 kts 348°
2026-04-13 19:01 32.42803 -99.85239 1874 ft 23 kts 349°
2026-04-13 19:01 32.42974 -99.85278 1875 ft 26 kts 349°
2026-04-13 19:01 32.43157 -99.85320 1874 ft 22 kts 348°
2026-04-13 19:02 32.43267 -99.85360 1877 ft 17 kts 347°
2026-04-13 19:02 32.43391 -99.85389 1875 ft 20 kts 349°
2026-04-13 19:02 32.43535 -99.85423 1877 ft 23 kts 348°
2026-04-13 19:02 32.43702 -99.85461 1876 ft 26 kts 348°
2026-04-13 19:03 32.43856 -99.85498 1877 ft 14 kts 347°
2026-04-13 19:03 32.43929 -99.85573 1878 ft 15 kts 284°
2026-04-13 19:03 32.43918 -99.85687 1874 ft 10 kts 259°
2026-04-13 19:03 32.43915 -99.85705 1876 ft 0 kts 258°
2026-04-13 19:04 32.43911 -99.85728 1879 ft 6 kts 258°
2026-04-13 19:04 32.43898 -99.85799 1878 ft 11 kts 257°
2026-04-13 19:05 32.43872 -99.85869 1877 ft 4 kts 205°
2026-04-13 19:05 32.43844 -99.85869 1857 ft 0 kts 168°
2026-04-13 19:05 32.43785 -99.85856 1859 ft 34 kts 169°
2026-04-13 19:06 32.43305 -99.85746 1857 ft 107 kts 169°
2026-04-13 19:06 32.42348 -99.85524 1900 ft 171 kts 169°
2026-04-13 19:06 32.41002 -99.85211 1995 ft 227 kts 172°
2026-04-13 19:06 32.39279 -99.84822 2270 ft 272 kts 171°
2026-04-13 19:07 32.37384 -99.84404 3188 ft 279 kts 172°
2026-04-13 19:07 32.35456 -99.83968 4251 ft 283 kts 172°
2026-04-13 19:07 32.33510 -99.84027 5186 ft 285 kts 206°
2026-04-13 19:07 32.32252 -99.85778 6239 ft 293 kts 257°
2026-04-13 19:08 32.32556 -99.88159 7379 ft 302 kts 291°
2026-04-13 19:08 32.33449 -99.90426 8560 ft 306 kts 293°
2026-04-13 19:08 32.34380 -99.92681 9735 ft 311 kts 294°
2026-04-13 19:08 32.35358 -99.94983 10878 ft 316 kts 294°
2026-04-13 19:09 32.36378 -99.97317 12101 ft 321 kts 295°
2026-04-13 19:09 32.37413 -99.99674 13409 ft 324 kts 295°
2026-04-13 19:09 32.38460 -100.02063 14703 ft 329 kts 295°
2026-04-13 19:09 32.39558 -100.04574 15489 ft 360 kts 295°
2026-04-13 19:10 32.40762 -100.07341 15991 ft 397 kts 295°
2026-04-13 19:10 32.42070 -100.10357 16243 ft 435 kts 294°
2026-04-13 19:10 32.43497 -100.13650 16356 ft 457 kts 295°
2026-04-13 19:10 32.44975 -100.17045 16434 ft 469 kts 295°
2026-04-13 19:11 32.46490 -100.20516 16473 ft 479 kts 295°
2026-04-13 19:11 32.48034 -100.24047 16492 ft 488 kts 295°
2026-04-13 19:11 32.49621 -100.27675 16507 ft 504 kts 295°
2026-04-13 19:11 32.51261 -100.31440 16523 ft 523 kts 295°
2026-04-13 19:12 32.52954 -100.35340 16532 ft 540 kts 295°
2026-04-13 19:12 32.54693 -100.39343 16543 ft 551 kts 295°
2026-04-13 19:12 32.56437 -100.43351 16541 ft 557 kts 295°
2026-04-13 19:12 32.58222 -100.47461 16532 ft 561 kts 295°
2026-04-13 19:13 32.60019 -100.51591 16518 ft 561 kts 295°
2026-04-13 19:13 32.61792 -100.55646 16491 ft 543 kts 295°
2026-04-13 19:13 32.63241 -100.59693 16463 ft 530 kts 282°
2026-04-13 19:13 32.63825 -100.63981 16468 ft 525 kts 275°
2026-04-13 19:14 32.64227 -100.68297 16452 ft 524 kts 274°
2026-04-13 19:14 32.64625 -100.72624 16467 ft 525 kts 274°
2026-04-13 19:14 32.65012 -100.76941 16480 ft 525 kts 274°
2026-04-13 19:14 32.65380 -100.81192 16507 ft 501 kts 274°
2026-04-13 19:15 32.65723 -100.85043 16525 ft 480 kts 274°
2026-04-13 19:15 32.66091 -100.89230 16515 ft 529 kts 274°
2026-04-13 19:15 32.66776 -100.93483 16506 ft 527 kts 289°
2026-04-13 19:15 32.68906 -100.97090 16536 ft 542 kts 316°
2026-04-13 19:16 32.72295 -100.99200 16559 ft 560 kts 342°
2026-04-13 19:16 32.76236 -100.99410 16572 ft 576 kts
2026-04-13 19:16 32.79987 -100.97680 16572 ft 589 kts 32°
2026-04-13 19:16 32.82878 -100.94326 16562 ft 595 kts 56°
2026-04-13 19:17 32.84466 -100.89835 16562 ft 593 kts 81°
2026-04-13 19:17 32.84449 -100.85011 16562 ft 584 kts 105°
2026-04-13 19:17 32.82840 -100.80647 16561 ft 569 kts 130°
2026-04-13 19:17 32.79954 -100.77533 16596 ft 554 kts 155°
2026-04-13 19:18 32.76382 -100.76187 16625 ft 542 kts 179°
2026-04-13 19:18 32.72715 -100.76790 16655 ft 531 kts 205°
2026-04-13 19:18 32.69720 -100.79214 16675 ft 524 kts 230°
2026-04-13 19:18 32.67989 -100.82964 16702 ft 524 kts 255°
2026-04-13 19:19 32.67701 -100.87250 16690 ft 527 kts 271°
2026-04-13 19:19 32.67876 -100.91581 16592 ft 523 kts 272°
2026-04-13 19:19 32.68106 -100.95892 16558 ft 521 kts 273°
2026-04-13 19:19 32.68382 -101.00203 16539 ft 522 kts 274°
2026-04-13 19:20 32.68308 -101.04505 16450 ft 520 kts 257°
2026-04-13 19:20 32.66914 -101.08429 16436 ft 520 kts 242°
2026-04-13 19:20 32.65173 -101.12105 16464 ft 520 kts 243°
2026-04-13 19:20 32.64191 -101.16202 16523 ft 523 kts 268°
2026-04-13 19:21 32.64567 -101.20510 16516 ft 525 kts 278°
2026-04-13 19:21 32.65195 -101.24781 16474 ft 524 kts 278°
2026-04-13 19:21 32.65832 -101.29066 16445 ft 524 kts 278°
2026-04-13 19:21 32.66495 -101.33336 16411 ft 526 kts 279°
2026-04-13 19:22 32.67177 -101.37549 16398 ft 527 kts 279°
2026-04-13 19:22 32.67837 -101.41809 16378 ft 526 kts 275°
2026-04-13 19:22 32.67523 -101.46045 16337 ft 516 kts 250°
2026-04-13 19:22 32.65819 -101.49780 16371 ft 514 kts 239°
2026-04-13 19:23 32.64573 -101.53754 16432 ft 517 kts 263°
2026-04-13 19:23 32.65183 -101.57984 16499 ft 530 kts 292°
2026-04-13 19:23 32.67523 -101.61421 16537 ft 549 kts 319°
2026-04-13 19:23 32.71005 -101.63343 16551 ft 567 kts 344°
2026-04-13 19:24 32.74973 -101.63656 16548 ft 577 kts 358°
2026-04-13 19:24 32.78979 -101.63458 16505 ft 579 kts
2026-04-13 19:24 32.82928 -101.63323 16435 ft 573 kts 353°
2026-04-13 19:24 32.86680 -101.64585 16379 ft 553 kts 327°
2026-04-13 19:25 32.89632 -101.67424 16409 ft 541 kts 311°
2026-04-13 19:25 32.92293 -101.70618 16433 ft 541 kts 310°
2026-04-13 19:25 32.95093 -101.73675 16188 ft 550 kts 320°
2026-04-13 19:25 32.98574 -101.75491 16281 ft 567 kts 343°
2026-04-13 19:26 33.02522 -101.76023 16362 ft 576 kts 355°
2026-04-13 19:26 33.06492 -101.75344 16400 ft 588 kts 18°
2026-04-13 19:26 33.09968 -101.72754 16443 ft 595 kts 44°
2026-04-13 19:26 33.12303 -101.68682 16471 ft 595 kts 66°
2026-04-13 19:27 33.13882 -101.64142 16440 ft 595 kts 69°
2026-04-13 19:27 33.15467 -101.59566 16403 ft 596 kts 69°
2026-04-13 19:27 33.17050 -101.54995 16392 ft 598 kts 69°
2026-04-13 19:27 33.18603 -101.50401 16383 ft 597 kts 69°
2026-04-13 19:28 33.20125 -101.45820 16382 ft 566 kts 71°
2026-04-13 19:28 33.20927 -101.41227 16403 ft 587 kts 90°
2026-04-13 19:28 33.20879 -101.36319 16393 ft 587 kts 95°
2026-04-13 19:28 33.20728 -101.31531 16377 ft 565 kts 95°
2026-04-13 19:29 33.20592 -101.27002 16369 ft 538 kts 95°
2026-04-13 19:29 33.20459 -101.22690 16362 ft 505 kts 95°
2026-04-13 19:29 33.20339 -101.18609 16361 ft 479 kts 95°
2026-04-13 19:29 33.20217 -101.14621 16362 ft 483 kts 95°
2026-04-13 19:30 33.20088 -101.10632 16356 ft 485 kts 96°
2026-04-13 19:30 33.19959 -101.06646 16358 ft 484 kts 95°
2026-04-13 19:30 33.19828 -101.02650 16363 ft 484 kts 95°
2026-04-13 19:30 33.19698 -100.98704 16368 ft 481 kts 95°
2026-04-13 19:31 33.19563 -100.94697 16364 ft 478 kts 95°
2026-04-13 19:31 33.19429 -100.90701 16360 ft 477 kts 95°
2026-04-13 19:31 33.19297 -100.86697 16367 ft 478 kts 95°
2026-04-13 19:31 33.19165 -100.82701 16364 ft 480 kts 95°
2026-04-13 19:32 33.19451 -100.78713 16323 ft 486 kts 76°
2026-04-13 19:32 33.20508 -100.74942 16350 ft 488 kts 73°
2026-04-13 19:32 33.20840 -100.70995 16366 ft 480 kts 103°
2026-04-13 19:32 33.19599 -100.67428 16407 ft 466 kts 128°
2026-04-13 19:33 33.17712 -100.64324 16391 ft 463 kts 132°
2026-04-13 19:33 33.15741 -100.61294 16381 ft 459 kts 133°
2026-04-13 19:33 33.13584 -100.58514 16381 ft 449 kts 147°
2026-04-13 19:34 33.08351 -100.54426 16380 ft 446 kts 153°
2026-04-13 19:34 33.05725 -100.52507 16374 ft 448 kts 154°
2026-04-13 19:34 33.03062 -100.50583 16368 ft 450 kts 154°
2026-04-13 19:34 33.00384 -100.48664 16378 ft 451 kts 154°
2026-04-13 19:35 32.97710 -100.46758 16368 ft 451 kts 154°
2026-04-13 19:35 32.95036 -100.44860 16380 ft 451 kts 154°
2026-04-13 19:35 32.92355 -100.42960 16378 ft 448 kts 154°
2026-04-13 19:35 32.89669 -100.41060 16375 ft 446 kts 154°
2026-04-13 19:36 32.86927 -100.39327 16370 ft 439 kts 166°
2026-04-13 19:36 32.83940 -100.38956 16411 ft 428 kts 186°
2026-04-13 19:36 32.80989 -100.39168 16408 ft 425 kts 189°
2026-04-13 19:36 32.78011 -100.39476 16409 ft 427 kts 189°
2026-04-13 19:37 32.75038 -100.39823 16420 ft 428 kts 190°
2026-04-13 19:37 32.72071 -100.40189 16441 ft 429 kts 190°
2026-04-13 19:37 32.69113 -100.40602 16456 ft 429 kts 194°
2026-04-13 19:37 32.66494 -100.42079 16513 ft 420 kts 226°
2026-04-13 19:38 32.65103 -100.45022 16573 ft 420 kts 259°
2026-04-13 19:38 32.65255 -100.48452 16575 ft 424 kts 279°
2026-04-13 19:38 32.65924 -100.51807 16543 ft 421 kts 282°
2026-04-13 19:38 32.66693 -100.55177 16503 ft 419 kts 283°
2026-04-13 19:39 32.67504 -100.58533 16477 ft 419 kts 284°
2026-04-13 19:39 32.68343 -100.61888 16458 ft 420 kts 284°
2026-04-13 19:39 32.69167 -100.65117 16430 ft 397 kts 285°
2026-04-13 19:39 32.69959 -100.68175 16434 ft 376 kts 285°
2026-04-13 19:40 32.70725 -100.71122 15801 ft 366 kts 284°
2026-04-13 19:40 32.71447 -100.73901 15190 ft 356 kts 285°
2026-04-13 19:40 32.72174 -100.76699 14724 ft 353 kts 284°
2026-04-13 19:40 32.72895 -100.79470 14267 ft 350 kts 284°
2026-04-13 19:41 32.73614 -100.82222 13797 ft 347 kts 284°
2026-04-13 19:41 32.74330 -100.84953 13283 ft 345 kts 284°
2026-04-13 19:41 32.75042 -100.87660 12849 ft 340 kts 285°
2026-04-13 19:42 32.76416 -100.92865 12565 ft 319 kts 285°
2026-04-13 19:42 32.77076 -100.95352 12530 ft 314 kts 284°
2026-04-13 19:42 32.77731 -100.97820 12511 ft 317 kts 284°
2026-04-13 19:42 32.78396 -101.00311 12500 ft 317 kts 284°
2026-04-13 19:43 32.79067 -101.02821 12489 ft 317 kts 284°
2026-04-13 19:43 32.79736 -101.05319 12481 ft 318 kts 284°
2026-04-13 19:43 32.80410 -101.07827 12471 ft 318 kts 284°
2026-04-13 19:43 32.81085 -101.10326 12465 ft 317 kts 284°
2026-04-13 19:44 32.81766 -101.12835 12445 ft 319 kts 284°
2026-04-13 19:44 32.82674 -101.15246 12458 ft 328 kts 300°
2026-04-13 19:44 32.84020 -101.17381 12445 ft 327 kts 304°
2026-04-13 19:44 32.85466 -101.19499 12420 ft 328 kts 305°
2026-04-13 19:45 32.86917 -101.21578 12413 ft 328 kts 306°
2026-04-13 19:45 32.88426 -101.23631 12394 ft 330 kts 313°
2026-04-13 19:45 32.90499 -101.24948 12430 ft 347 kts 336°
2026-04-13 19:45 32.92810 -101.25800 12406 ft 346 kts 340°
2026-04-13 19:46 32.95114 -101.26566 12390 ft 349 kts 340°
2026-04-13 19:46 32.97452 -101.27315 12371 ft 346 kts 341°
2026-04-13 19:46 32.99792 -101.28045 12373 ft 349 kts 341°
2026-04-13 19:46 33.02135 -101.28764 12375 ft 348 kts 341°
2026-04-13 19:47 33.04503 -101.29488 12370 ft 349 kts 341°
2026-04-13 19:47 33.06852 -101.30199 12359 ft 347 kts 341°
2026-04-13 19:47 33.09141 -101.30997 12333 ft 342 kts 329°
2026-04-13 19:47 33.10949 -101.32706 12350 ft 328 kts 310°
2026-04-13 19:48 33.12558 -101.34648 12370 ft 329 kts 309°
2026-04-13 19:48 33.14146 -101.36599 12350 ft 325 kts 306°
2026-04-13 19:48 33.15095 -101.38945 12163 ft 312 kts 269°
2026-04-13 19:48 33.14378 -101.41253 12086 ft 303 kts 224°
2026-04-13 19:49 33.12433 -101.42172 12406 ft 312 kts 192°
2026-04-13 19:49 33.10201 -101.42460 12419 ft 322 kts 190°
2026-04-13 19:49 33.08017 -101.42728 12393 ft 316 kts 190°
2026-04-13 19:49 33.05812 -101.42979 12396 ft 321 kts 189°
2026-04-13 19:50 33.03593 -101.43231 12377 ft 316 kts 191°
2026-04-13 19:50 33.02216 -101.43730 12333 ft 311 kts 215°
2026-04-13 19:50 33.01013 -101.45734 12371 ft 304 kts 256°
2026-04-13 19:50 33.01283 -101.48238 12394 ft 322 kts 295°
2026-04-13 19:51 33.02868 -101.50167 12410 ft 339 kts 329°
2026-04-13 19:51 33.05220 -101.50471 12457 ft 364 kts 11°
2026-04-13 19:51 33.07407 -101.48838 12494 ft 379 kts 51°
2026-04-13 19:51 33.08371 -101.45992 12525 ft 372 kts 92°
2026-04-13 19:52 33.07774 -101.43086 12568 ft 360 kts 126°
2026-04-13 19:52 33.06484 -101.40544 12485 ft 359 kts 130°
2026-04-13 19:52 33.05134 -101.38046 12430 ft 355 kts 130°
2026-04-13 19:52 33.03769 -101.35576 12410 ft 357 kts 131°
2026-04-13 19:53 33.02623 -101.32949 12306 ft 365 kts 109°
2026-04-13 19:53 33.02208 -101.29965 12341 ft 366 kts 103°
2026-04-13 19:53 33.01846 -101.26941 12352 ft 366 kts 103°
2026-04-13 19:53 33.01479 -101.23981 12363 ft 367 kts 103°
2026-04-13 19:54 33.01099 -101.20961 12366 ft 368 kts 103°
2026-04-13 19:54 33.00718 -101.17942 12382 ft 368 kts 103°
2026-04-13 19:54 33.00454 -101.14901 12340 ft 372 kts 90°
2026-04-13 19:54 33.00820 -101.11857 12347 ft 372 kts 81°
2026-04-13 19:55 33.01397 -101.08834 12367 ft 375 kts 79°
2026-04-13 19:55 33.01950 -101.05811 12379 ft 371 kts 86°
2026-04-13 19:55 33.01738 -101.02799 12396 ft 369 kts 103°
2026-04-13 19:55 33.01921 -100.99760 12321 ft 376 kts 68°
2026-04-13 19:56 33.03576 -100.97439 12328 ft 369 kts 26°
2026-04-13 19:56 33.05999 -100.96849 12353 ft 353 kts 345°
2026-04-13 19:56 33.08051 -100.98132 12396 ft 325 kts 303°
2026-04-13 19:56 33.08753 -101.00551 12442 ft 310 kts 261°
2026-04-13 19:57 33.07807 -101.02729 12486 ft 307 kts 218°
2026-04-13 19:57 33.05733 -101.03404 12530 ft 328 kts 175°
2026-04-13 19:57 33.03549 -101.02430 12517 ft 340 kts 158°
2026-04-13 19:57 33.01447 -101.01146 12453 ft 338 kts 156°
2026-04-13 19:58 32.99371 -100.99821 12426 ft 339 kts 155°
2026-04-13 19:58 32.97373 -100.98411 12428 ft 327 kts 150°
2026-04-13 19:58 32.95576 -100.96881 12274 ft 316 kts 148°
2026-04-13 19:58 32.93804 -100.95295 11854 ft 320 kts 147°
2026-04-13 19:59 32.92104 -100.93551 11436 ft 328 kts 132°
2026-04-13 19:59 32.90711 -100.91401 10951 ft 325 kts 140°
2026-04-13 19:59 32.88750 -100.90379 10388 ft 307 kts 185°
2026-04-13 19:59 32.86929 -100.91361 9927 ft 296 kts 231°
2026-04-13 20:00 32.86404 -100.93673 9472 ft 303 kts 275°
2026-04-13 20:00 32.86917 -100.96117 9048 ft 305 kts 282°
2026-04-13 20:00 32.87486 -100.98537 8722 ft 302 kts 282°
2026-04-13 20:00 32.88059 -101.00921 8564 ft 294 kts 282°
2026-04-13 20:01 32.88633 -101.03214 8489 ft 284 kts 282°
2026-04-13 20:01 32.89204 -101.05425 8456 ft 275 kts 283°
2026-04-13 20:01 32.89764 -101.07551 8442 ft 272 kts 283°
2026-04-13 20:01 32.90332 -101.09698 8432 ft 273 kts 283°
2026-04-13 20:02 32.90907 -101.11893 8429 ft 274 kts 283°
2026-04-13 20:02 32.91462 -101.14037 8425 ft 273 kts 283°
2026-04-13 20:02 32.91748 -101.16235 8398 ft 266 kts 266°
2026-04-13 20:02 32.91666 -101.18450 8401 ft 268 kts 263°
2026-04-13 20:03 32.91541 -101.20659 8395 ft 267 kts 262°
2026-04-13 20:03 32.91586 -101.22831 8327 ft 272 kts 283°
2026-04-13 20:03 32.92894 -101.24501 8341 ft 297 kts 335°
2026-04-13 20:03 32.94962 -101.24414 8371 ft 312 kts 25°
2026-04-13 20:04 32.96428 -101.22563 8404 ft 313 kts 73°
2026-04-13 20:04 32.96433 -101.20055 8454 ft 305 kts 120°
2026-04-13 20:04 32.95062 -101.18325 8508 ft 284 kts 158°
2026-04-13 20:04 32.93296 -101.17241 8476 ft 286 kts 161°
2026-04-13 20:05 32.91512 -101.16209 8447 ft 284 kts 161°
2026-04-13 20:05 32.89733 -101.15207 8429 ft 283 kts 162°
2026-04-13 20:05 32.87930 -101.14459 8428 ft 272 kts 185°
2026-04-13 20:05 32.86299 -101.15327 8539 ft 267 kts 237°
2026-04-13 20:06 32.85988 -101.17437 8623 ft 270 kts 282°
2026-04-13 20:06 32.86370 -101.19635 8414 ft 263 kts 263°
2026-04-13 20:06 32.85750 -101.21698 8407 ft 271 kts 246°
2026-04-13 20:06 32.84968 -101.23699 8405 ft 264 kts 245°
2026-04-13 20:07 32.84225 -101.25686 8401 ft 263 kts 246°
2026-04-13 20:07 32.83519 -101.27679 8384 ft 266 kts 246°
2026-04-13 20:07 32.82814 -101.29740 8400 ft 265 kts 247°
2026-04-13 20:07 32.82141 -101.31743 8385 ft 264 kts 247°
2026-04-13 20:08 32.81468 -101.33771 8376 ft 262 kts 247°
2026-04-13 20:08 32.80747 -101.35771 8380 ft 265 kts 244°
2026-04-13 20:08 32.79936 -101.37728 8372 ft 263 kts 242°
2026-04-13 20:08 32.79096 -101.39663 8367 ft 263 kts 242°
2026-04-13 20:09 32.78237 -101.41602 8364 ft 265 kts 241°
2026-04-13 20:09 32.77378 -101.43526 8363 ft 261 kts 241°
2026-04-13 20:09 32.76530 -101.45421 8589 ft 259 kts 241°
2026-04-13 20:09 32.75669 -101.47331 9102 ft 260 kts 241°
2026-04-13 20:10 32.74813 -101.49233 9635 ft 265 kts 241°
2026-04-13 20:10 32.73942 -101.51153 10042 ft 268 kts 241°
2026-04-13 20:10 32.73067 -101.53079 10227 ft 264 kts 241°
2026-04-13 20:10 32.72187 -101.55017 10318 ft 266 kts 241°
2026-04-13 20:11 32.71311 -101.56950 10363 ft 264 kts 241°
2026-04-13 20:11 32.70433 -101.58886 10396 ft 267 kts 241°
2026-04-13 20:11 32.69569 -101.60843 10394 ft 265 kts 245°
2026-04-13 20:11 32.69512 -101.63008 10388 ft 275 kts 284°
2026-04-13 20:12 32.70244 -101.65094 10437 ft 277 kts 290°
2026-04-13 20:12 32.71047 -101.67176 10439 ft 277 kts 290°
2026-04-13 20:12 32.71858 -101.69248 10443 ft 276 kts 290°
2026-04-13 20:12 32.72681 -101.71308 10453 ft 277 kts 291°
2026-04-13 20:13 32.73513 -101.73370 10460 ft 277 kts 291°
2026-04-13 20:13 32.74352 -101.75438 10472 ft 276 kts 291°
2026-04-13 20:13 32.75185 -101.77464 10483 ft 277 kts 293°
2026-04-13 20:13 32.76622 -101.79044 10485 ft 302 kts 338°
2026-04-13 20:14 32.78784 -101.78800 10936 ft 347 kts 28°
2026-04-13 20:14 32.80530 -101.76636 11787 ft 387 kts 59°
2026-04-13 20:14 32.81945 -101.73744 12568 ft 431 kts 61°
2026-04-13 20:14 32.83478 -101.70506 13333 ft 462 kts 62°
2026-04-13 20:15 32.85046 -101.67115 14070 ft 470 kts 62°
2026-04-13 20:15 32.86590 -101.63700 14736 ft 468 kts 63°
2026-04-13 20:15 32.87547 -101.60041 15453 ft 464 kts 88°
2026-04-13 20:15 32.87622 -101.56180 15967 ft 472 kts 94°
2026-04-13 20:16 32.87552 -101.52196 16187 ft 487 kts 95°
2026-04-13 20:16 32.87294 -101.48183 16291 ft 502 kts 100°
2026-04-13 20:16 32.86824 -101.43993 16339 ft 517 kts 102°
2026-04-13 20:16 32.86274 -101.39700 16354 ft 529 kts 102°
2026-04-13 20:17 32.85681 -101.35333 16355 ft 543 kts 103°
2026-04-13 20:17 32.85053 -101.30809 16370 ft 566 kts 102°
2026-04-13 20:17 32.84393 -101.26099 16393 ft 588 kts 102°
2026-04-13 20:17 32.83714 -101.21303 16410 ft 602 kts 102°
2026-04-13 20:18 32.83006 -101.16348 16422 ft 611 kts 102°
2026-04-13 20:18 32.82289 -101.11345 16439 ft 617 kts 102°
2026-04-13 20:18 32.81565 -101.06301 16451 ft 620 kts 102°
2026-04-13 20:18 32.80837 -101.01234 16466 ft 623 kts 102°
2026-04-13 20:19 32.80100 -100.96134 16475 ft 626 kts 102°
2026-04-13 20:19 32.79360 -100.91024 16475 ft 628 kts 102°
2026-04-13 20:19 32.78617 -100.85902 16468 ft 629 kts 102°
2026-04-13 20:19 32.77773 -100.80802 16456 ft 627 kts 107°
2026-04-13 20:20 32.76562 -100.75887 16447 ft 626 kts 110°
2026-04-13 20:20 32.75226 -100.70962 16433 ft 627 kts 111°
2026-04-13 20:20 32.73872 -100.66033 16420 ft 627 kts 111°
2026-04-13 20:20 32.72504 -100.61096 16404 ft 627 kts 111°
2026-04-13 20:21 32.71129 -100.56172 16423 ft 627 kts 111°
2026-04-13 20:21 32.69751 -100.51251 16438 ft 627 kts 111°
2026-04-13 20:21 32.68373 -100.46334 16444 ft 627 kts 111°
2026-04-13 20:21 32.67049 -100.41600 16445 ft 595 kts 111°
2026-04-13 20:22 32.65781 -100.37037 16395 ft 571 kts 111°
2026-04-13 20:22 32.64553 -100.32604 15831 ft 560 kts 111°
2026-04-13 20:22 32.63345 -100.28242 15295 ft 552 kts 111°
2026-04-13 20:22 32.62150 -100.23937 14748 ft 544 kts 111°
2026-04-13 20:23 32.61017 -100.19835 14183 ft 469 kts 111°
2026-04-13 20:23 32.60141 -100.16560 13422 ft 374 kts 111°
2026-04-13 20:23 32.59438 -100.13823 12458 ft 325 kts 109°
2026-04-13 20:23 32.59410 -100.11088 11571 ft 352 kts 73°
2026-04-13 20:24 32.60868 -100.08780 10948 ft 358 kts 31°
2026-04-13 20:24 32.63206 -100.07944 10352 ft 345 kts 353°
2026-04-13 20:24 32.65227 -100.08814 9828 ft 310 kts 316°
2026-04-13 20:24 32.66634 -100.10669 9555 ft 299 kts 305°
2026-04-13 20:25 32.67950 -100.12591 9230 ft 297 kts 304°
2026-04-13 20:25 32.68969 -100.14734 8459 ft 300 kts 278°
2026-04-13 20:25 32.68612 -100.17028 7870 ft 286 kts 232°
2026-04-13 20:25 32.66893 -100.18127 7303 ft 297 kts 182°
2026-04-13 20:26 32.64977 -100.17211 6823 ft 315 kts 134°
2026-04-13 20:26 32.63920 -100.14933 6495 ft 316 kts 114°
2026-04-13 20:26 32.62986 -100.12563 6082 ft 316 kts 117°
2026-04-13 20:26 32.61990 -100.10238 5671 ft 316 kts 118°
2026-04-13 20:27 32.61007 -100.07950 5260 ft 316 kts 118°
2026-04-13 20:27 32.60022 -100.05624 4857 ft 316 kts 118°
2026-04-13 20:27 32.59048 -100.03288 4465 ft 315 kts 118°
2026-04-13 20:27 32.58084 -100.00956 4060 ft 315 kts 118°
2026-04-13 20:28 32.57120 -99.98616 3659 ft 314 kts 118°
2026-04-13 20:28 32.56169 -99.96302 3370 ft 309 kts 118°
2026-04-13 20:28 32.55247 -99.94051 3250 ft 298 kts 118°
2026-04-13 20:28 32.54331 -99.91938 3218 ft 282 kts 127°
2026-04-13 20:29 32.52969 -99.90393 3233 ft 265 kts 142°
2026-04-13 20:29 32.51561 -99.89054 3021 ft 257 kts 158°
2026-04-13 20:29 32.49849 -99.88830 2825 ft 248 kts 193°
2026-04-13 20:29 32.48413 -99.89777 2873 ft 233 kts 227°
2026-04-13 20:30 32.47735 -99.91497 2677 ft 235 kts 253°
2026-04-13 20:30 32.47795 -99.93393 2688 ft 235 kts 293°
2026-04-13 20:30 32.49078 -99.94456 2807 ft 234 kts 344°
2026-04-13 20:30 32.50699 -99.94805 3035 ft 239 kts 347°
2026-04-13 20:31 32.52320 -99.95200 3116 ft 236 kts 345°
2026-04-13 20:31 32.53925 -99.95599 3151 ft 236 kts 345°
2026-04-13 20:31 32.55534 -99.95998 3151 ft 236 kts 345°
2026-04-13 20:31 32.57168 -99.96169 3097 ft 242 kts 13°
2026-04-13 20:32 32.58343 -99.94930 3132 ft 225 kts 78°
2026-04-13 20:32 32.58093 -99.93279 3165 ft 200 kts 128°
2026-04-13 20:32 32.57134 -99.91976 3159 ft 227 kts 138°
2026-04-13 20:32 32.55975 -99.90534 3221 ft 245 kts 138°
2026-04-13 20:33 32.54782 -99.89174 3460 ft 223 kts 142°
2026-04-13 20:33 32.53592 -99.88108 3335 ft 207 kts 161°
2026-04-13 20:33 32.52278 -99.87627 3292 ft 190 kts 173°
2026-04-13 20:33 32.51021 -99.87348 3216 ft 179 kts 176°
2026-04-13 20:34 32.49828 -99.87155 2986 ft 172 kts 175°
2026-04-13 20:34 32.48656 -99.86949 2744 ft 168 kts 171°
2026-04-13 20:34 32.47503 -99.86712 2517 ft 174 kts 172°
2026-04-13 20:34 32.46280 -99.86426 2397 ft 177 kts 170°
2026-04-13 20:35 32.45083 -99.86146 2126 ft 170 kts 171°
2026-04-13 20:35 32.43979 -99.85898 1923 ft 153 kts 171°
2026-04-13 20:35 32.42998 -99.85673 1865 ft 131 kts 169°
2026-04-13 20:35 32.42175 -99.85484 1865 ft 110 kts 169°
2026-04-13 20:36 32.41489 -99.85320 1866 ft 93 kts 168°
2026-04-13 20:36 32.41034 -99.85218 1868 ft 55 kts 169°
2026-04-13 20:36 32.40664 -99.85132 1864 ft 50 kts 168°
2026-04-13 20:36 32.40412 -99.85070 1863 ft 28 kts 166°
2026-04-13 20:37 32.40290 -99.84938 1867 ft 23 kts 96°
2026-04-13 20:37 32.40316 -99.84760 1864 ft 19 kts 66°
2026-04-13 20:37 32.40402 -99.84701 1862 ft 14 kts 357°
2026-04-13 20:37 32.40513 -99.84723 1861 ft 18 kts 349°
2026-04-13 20:38 32.40624 -99.84733 1862 ft 11 kts 30°
2026-04-13 20:38 32.40648 -99.84668 1862 ft 11 kts 78°
2026-04-13 20:38 32.40666 -99.84561 1865 ft 13 kts 78°
2026-04-13 20:38 32.40687 -99.84493 1867 ft 5 kts 37°
2026-04-13 20:39 32.40739 -99.84490 1866 ft 12 kts 351°
2026-04-13 20:39 32.40797 -99.84504 1866 ft 13 kts 349°
2026-04-13 20:39 32.40852 -99.84540 1867 ft 4 kts 281°
2026-04-13 20:39 32.40851 -99.84571 1864 ft 0 kts 261°